Weather History for Hamilton, OH

Change the Weather History Date:

Monday, April 29, 2013

  Actual Average (KCVG) Record (KCVG)
Temperature  
Mean Temperature 57 °F 59 °F  
Max Temperature 64 °F 69 °F 87 °F (1899)
Min Temperature 50 °F 48 °F 31 °F (1874)
Degree Days  
Heating Degree Days 8 7  
Month to date heating degree days 334  
Since 1 July heating degree days 4827  
Cooling Degree Days 0 1  
Month to date cooling degree days 17  
Year to date cooling degree days 17  
Growing Degree Days 7 (Base 50)    
Moisture  
Dew Point 54 °F    
Average Humidity 86    
Maximum Humidity 97    
Minimum Humidity 67    
Precipitation  
Precipitation 0.01 in 0.14 in 2.41 in (1996)
Month to date precipitation 3.75  
Year to date precipitation 13.52  
Snow  
Snow 0.00 in 0.00 in 0.00 in ()
Month to date snowfall 0.5  
Since 1 July snowfall 22.1  
Snow Depth -    
Sea Level Pressure  
Sea Level Pressure 29.97 in    
Wind  
Wind Speed 2 mph (WSW)    
Max Wind Speed 6 mph    
Max Gust Speed -    
Visibility 9 miles    
Events      
T = Trace of Precipitation, MM = Missing Value Source: NWS Daily Summary

Daily Weather History Graph

Daily Weather History Graph

Search for Another Location

Airport:

Trip Planner

Search our weather history database for the weather conditions in past years. The results will help you decide how hot, cold, wet, or windy it might be!

Date:

Astronomy

Apr. 29, 2013 Rise Set
Actual Time 6:41 AM EDT 8:29 PM EDT
Civil Twilight 6:12 AM EDT 8:58 PM EDT
Nautical Twilight 5:37 AM EDT 9:33 PM EDT
Astronomical Twilight 5:00 AM EDT 10:11 PM EDT
Moon No Moon Rise 10:01 AM EDT (4/29)
Length of Visible Light 14h 46m
Length of Day
13h 48m
Waning Gibbous, 80% of the Moon is Illuminated
Apr 29
Waning Gibbous
May 2
Last Quarter
May 9
New
May 18
First Quarter
May 25
Full

Hourly Weather History & Observations

Time (EDT) Temp. Dew Point Humidity Pressure Visibility Wind Dir Wind Speed Gust Speed Precip Events Conditions
12:53 AM 50.0 °F 48.9 °F 96% 29.91 in 9.0 mi Calm Calm - N/A   Partly Cloudy
1:25 AM 51.8 °F 50.0 °F 94% 29.91 in 8.0 mi Calm Calm - N/A   Mostly Cloudy
1:53 AM 54.0 °F 53.1 °F 97% 29.92 in 10.0 mi Calm Calm - N/A   Overcast
2:53 AM 55.9 °F 53.1 °F 90% 29.92 in 10.0 mi SW 3.5 mph - N/A   Overcast
3:29 AM 57.2 °F 53.6 °F 88% 29.92 in 10.0 mi SW 3.5 mph - N/A   Overcast
3:53 AM 57.0 °F 54.0 °F 89% 29.92 in 10.0 mi WSW 4.6 mph - N/A   Overcast
4:53 AM 55.9 °F 54.0 °F 93% 29.93 in 9.0 mi SW 3.5 mph - N/A   Overcast
5:46 AM 55.4 °F 53.6 °F 94% 29.94 in 9.0 mi WSW 3.5 mph - N/A   Overcast
5:53 AM 55.9 °F 54.0 °F 93% 29.94 in 10.0 mi Calm Calm - N/A   Overcast
6:53 AM 55.9 °F 55.0 °F 97% 29.96 in 6.0 mi Calm Calm - 0.01 in   Overcast
7:53 AM 55.9 °F 55.0 °F 97% 29.98 in 8.0 mi Calm Calm - N/A   Overcast
8:53 AM 57.0 °F 55.0 °F 93% 30.00 in 10.0 mi Calm Calm - N/A   Overcast
9:06 AM 57.2 °F 55.4 °F 94% 30.00 in 10.0 mi West 3.5 mph - N/A   Overcast
9:37 AM 57.2 °F 55.4 °F 94% 30.00 in 9.0 mi West 3.5 mph - N/A   Overcast
9:53 AM 57.0 °F 55.0 °F 93% 30.01 in 8.0 mi WSW 3.5 mph - N/A   Overcast
10:08 AM 57.2 °F 55.4 °F 94% 30.01 in 9.0 mi WSW 3.5 mph - N/A   Overcast
10:40 AM 59.0 °F 55.4 °F 88% 30.01 in 7.0 mi Variable 3.5 mph - N/A   Overcast
10:53 AM 59.0 °F 55.9 °F 90% 30.01 in 7.0 mi WSW 4.6 mph - N/A   Overcast
11:13 AM 60.8 °F 55.4 °F 82% 30.01 in 8.0 mi West 3.5 mph - N/A   Overcast
11:53 AM 62.1 °F 55.9 °F 80% 30.02 in 9.0 mi WSW 3.5 mph - N/A   Overcast
12:53 PM 63.0 °F 54.0 °F 72% 30.01 in 10.0 mi Variable 3.5 mph - N/A   Overcast
1:53 PM 62.1 °F 54.0 °F 75% 30.01 in 10.0 mi WSW 5.8 mph - N/A   Overcast
2:53 PM 62.1 °F 55.0 °F 78% 30.00 in 10.0 mi SW 4.6 mph - N/A   Overcast
3:53 PM 63.0 °F 54.0 °F 72% 29.99 in 10.0 mi WSW 3.5 mph - N/A   Overcast
4:53 PM 64.9 °F 54.0 °F 68% 29.98 in 10.0 mi Calm Calm - N/A   Overcast
5:53 PM 64.9 °F 54.0 °F 68% 29.97 in 10.0 mi South 4.6 mph - N/A   Overcast
6:27 PM 64.4 °F 53.6 °F 68% 29.97 in 10.0 mi Calm Calm - N/A   Overcast
6:53 PM 64.0 °F 54.0 °F 70% 29.97 in 10.0 mi Calm Calm - N/A   Overcast
7:53 PM 63.0 °F 52.0 °F 67% 29.97 in 10.0 mi Calm Calm - N/A   Scattered Clouds
8:53 PM 54.0 °F 50.0 °F 86% 29.97 in 9.0 mi Calm Calm - N/A   Clear
9:53 PM 51.1 °F 48.9 °F 92% 29.99 in 8.0 mi Calm Calm - N/A   Clear
10:53 PM 53.1 °F 51.1 °F 93% 29.98 in 7.0 mi East 4.6 mph - N/A   Clear
11:53 PM 52.0 °F 50.0 °F 93% 29.99 in 6.0 mi Calm Calm - N/A   Clear